sat.trackr.live / text

‹ back to catalog

STARLINK-4299

NORAD 53172 · 2022-083AS

PAYLOAD ACTIVE UNKNOWN

§ Identity

Operator
Country
US
Launch date
2022-07-17
Launch site
AFETR
Launch vehicle
Mass (kg)
RCS (m²)

Purposes: comms

External: N2YO · Heavens-Above · Gunter

§ Orbital elements

Epoch: 2026-09-19T19:14:41.104896Z

Period
94.01 min
Inclination
53.1621°
Eccentricity
0.0001104
Mean motion
15.31708151 rev/d
Perigee alt
470.0 km
Apogee alt
471.5 km
Semi-major
6,848.9 km
B*
1.2049e-5
RAAN
355.8509°
Arg perigee
77.8071°
Mean anomaly
282.3054°
Rev number
23,088

§ Raw data

STARLINK-42991 53172U 22083AS  26262.80186464  .00000009  00000+0  12049-4 0  99962 53172  53.1621 355.8509 0001104  77.8071 282.3054 15.31708151230886

JSON: /api/v1/satellites/53172 · /tle

For live sub-satellite position, see the globe view (requires WebGL).

§ Visibility from observer

Set your observer location to see the next 7 days of passes ≥ 10°. The values pass through the URL so the page stays shareable.

No JS? Fill the form by hand. The geolocation button needs JavaScript.